User: anonymous   Login
Location: Dover
(39.1580°N, 75.5250°W)
Time: 05:58:28
(UTC-04:00)
Language:

SeaSat 1 - Orbit

View from above orbital plane
View from above orbital plane
View from above satellite
View from above satellite

Ground track
Ground track

The orbit data is extracted from the following two-line orbital elements,

1 10967U 78064A   16239.48513696  .00000002  00000-0  40955-4 0  9990
2 10967 108.0079  43.6968 0001720 297.7273  62.3697 14.43572860  4077
Epoch (UTC): 26 August 2016 11:38:35
Eccentricity: 0.0001720
inclination: 108.0079°
perigee height: 745 km
apogee height: 748 km
right ascension of ascending node: 43.6968°
argument of perigee: 297.7273°
revolutions per day: 14.43572860
mean anomaly at epoch: 62.3697°
orbit number at epoch: 407

The dashed part of the orbit path shows where the satellite is in the earth's shadow,  

DLR